Location: Unspecified
(0.0000°N, 0.0000°E)
Time: 18:45:57
(UTC+02:00)

ATLAS 2AS CENTAUR R/B - Visible Passes

Search period start: 30 June 2015 00:00
Search period end: 10 July 2015 00:00
Orbit: 912 x 1300 km, 63.7° (Epoch: 24 June)

Date Brightness Start Highest point End Pass type
(mag) Time Alt. Az. Time Alt. Az. Time Alt. Az.
30 Jun 5.0 22:38:25 10° NNE 22:39:09 12° NNE 22:39:09 12° NNE visible
01 Jul 5.5 00:26:34 10° NW 00:26:36 10° NW 00:26:36 10° NW visible
01 Jul 4.9 23:41:38 10° NNW 23:43:31 19° NNW 23:43:31 19° NNW visible
02 Jul 4.4 22:57:18 10° N 23:00:29 25° N 23:00:29 25° N visible
03 Jul 4.3 22:13:43 10° NNE 22:17:30 22° NE 22:17:30 22° NE visible
04 Jul 5.2 00:03:38 10° NW 00:04:58 15° NW 00:04:58 15° NW visible
04 Jul 4.6 21:31:47 10° NE 21:34:30 13° ENE 21:34:35 13° ENE visible
04 Jul 4.3 23:18:16 10° NNW 23:22:04 32° NW 23:22:04 32° NW visible
05 Jul 3.4 22:33:35 10° NNW 22:39:12 49° N 22:39:12 49° N visible
06 Jul 3.5 21:49:31 10° N 21:56:19 36° ENE 21:56:24 36° ENE visible
06 Jul 4.9 23:41:00 10° WNW 23:43:52 20° WNW 23:43:52 20° WNW visible
07 Jul 4.2 21:06:23 10° NNE 21:11:20 19° ENE 21:13:39 17° E visible
07 Jul 3.7 22:55:09 10° NW 23:01:08 45° W 23:01:08 45° W visible
08 Jul 2.7 22:10:05 10° NNW 22:17:45 89° WSW 22:18:27 76° SSE visible
09 Jul 3.1 21:25:38 10° N 21:33:00 51° ENE 21:35:49 34° ESE visible
09 Jul 4.8 23:18:53 10° WNW 23:23:18 18° WSW 23:23:18 18° WSW visible
